Minneapolis Flying Cloud, MN

9:08 AM CDT on April 26, 2017 (GMT -0500)
Flying Cloud

Weather History for KFCM - April, 2013

Change the Weather History Date:

Saturday, April 20, 2013

  Actual Average Record
Temperature  
Mean Temperature 30 °F -  
Max Temperature 39 °F 58 °F 77 °F (2014)
Min Temperature 21 °F 38 °F 21 °F (2013)
Degree Days  
Heating Degree Days 35    
Moisture  
Dew Point 14 °F    
Average Humidity 51    
Maximum Humidity 82    
Minimum Humidity 32    
Precipitation  
Precipitation 0.00 in - - ()
Sea Level Pressure  
Sea Level Pressure 30.23 in    
Wind  
Wind Speed 6 mph (NNW)    
Max Wind Speed 9 mph    
Max Gust Speed -    
Visibility 10 miles    
Events      
Averages and records for this station are not official NWS values.
T = Trace of Precipitation, MM = Missing Value Source: NWS Daily Summary

Daily Weather History Graph

Daily Weather History Graph

Search for Another Location

Airport or City:

Trip Planner

Search our weather history database for the weather conditions in past years. The results will help you decide how hot, cold, wet, or windy it might be!

Date:

Astronomy

Apr. 20, 2013 Rise Set
Actual Time 6:20 AM CDT 8:05 PM CDT
Civil Twilight 5:49 AM CDT 8:36 PM CDT
Nautical Twilight 5:11 AM CDT 9:14 PM CDT
Astronomical Twilight 4:30 AM CDT 9:56 PM CDT
Moon 2:37 PM CDT (4/20) 3:24 AM CDT (4/20)
Length of Visible Light 14h 47m
Length of Day
13h 45m
Waxing Gibbous, 71% of the Moon is Illuminated
Apr 20
Waxing Gibbous
Apr 25
Full
May 2
Last Quarter
May 9
New
May 17
First Quarter

Hourly Weather History & Observations

Time (CDT) Temp. Windchill Dew Point Humidity Pressure Visibility Wind Dir Wind Speed Gust Speed Precip Events Conditions
12:53 AM 28.9 °F 21.1 °F 16.0 °F 58% 30.04 in 10.0 mi WNW 8.1 mph - 0.00 in   Light Ice Pellets
1:53 AM 27.0 °F 18.7 °F 17.1 °F 66% 30.06 in 10.0 mi WNW 8.1 mph - 0.00 in   Light Ice Pellets
2:53 AM 26.1 °F 17.6 °F 18.0 °F 71% 30.07 in 10.0 mi NW 8.1 mph - 0.00 in   Light Ice Pellets
3:53 AM 25.0 °F 15.5 °F 16.0 °F 69% 30.10 in 10.0 mi NW 9.2 mph - 0.00 in   Light Ice Pellets
4:53 AM 24.1 °F 16.0 °F 16.0 °F 71% 30.12 in 10.0 mi NNW 6.9 mph - 0.00 in   Light Ice Pellets
5:53 AM 23.0 °F 15.8 °F 16.0 °F 74% 30.15 in 10.0 mi NW 5.8 mph - 0.00 in   Light Ice Pellets
6:53 AM 21.9 °F 17.2 °F 17.1 °F 82% 30.18 in 10.0 mi NNW 3.5 mph - 0.00 in   Light Ice Pellets
7:53 AM 25.0 °F 16.3 °F 17.1 °F 72% 30.21 in 10.0 mi NNW 8.1 mph - 0.00 in   Clear
8:53 AM 28.9 °F 25.2 °F 16.0 °F 58% 30.24 in 10.0 mi NNE 3.5 mph - N/A   Clear
9:53 AM 30.9 °F - 12.9 °F 47% 30.26 in 10.0 mi Calm Calm - N/A   Clear
10:53 AM 33.1 °F - 12.0 °F 42% 30.27 in 10.0 mi Calm Calm - N/A   Clear
11:53 AM 35.1 °F - 10.9 °F 37% 30.29 in 10.0 mi Calm Calm - N/A   Clear
12:53 PM 36.0 °F - 9.0 °F 33% 30.30 in 10.0 mi Calm Calm - N/A   Clear
1:53 PM 37.0 °F 34.5 °F 10.9 °F 34% 30.30 in 10.0 mi SSW 3.5 mph - N/A   Clear
2:53 PM 37.9 °F 33.5 °F 12.0 °F 35% 30.30 in 10.0 mi SE 5.8 mph - N/A   Clear
3:53 PM 37.9 °F 34.4 °F 10.0 °F 32% 30.30 in 10.0 mi WNW 4.6 mph - N/A   Clear
4:53 PM 39.0 °F 35.7 °F 14.0 °F 36% 30.29 in 10.0 mi SE 4.6 mph - N/A   Clear
5:53 PM 37.9 °F 33.5 °F 15.1 °F 39% 30.30 in 10.0 mi SW 5.8 mph - N/A   Clear
6:53 PM 37.0 °F 33.3 °F 14.0 °F 39% 30.29 in 10.0 mi SW 4.6 mph - N/A   Clear
7:53 PM 37.0 °F - 12.0 °F 36% 30.29 in 10.0 mi Calm Calm - N/A   Clear
8:53 PM 35.1 °F 32.2 °F 15.1 °F 44% 30.30 in 10.0 mi ENE 3.5 mph - N/A   Clear
9:53 PM 35.1 °F 30.1 °F 14.0 °F 42% 30.31 in 10.0 mi East 5.8 mph - N/A   Partly Cloudy
10:53 PM 35.1 °F 31.0 °F 15.1 °F 44% 30.32 in 10.0 mi East 4.6 mph - N/A   Overcast
11:53 PM 34.0 °F 29.8 °F 18.0 °F 52% 30.32 in 10.0 mi ESE 4.6 mph - N/A   Overcast